date,time,DOY,Ta_1_1_1,Pa_1_1_1,RH_1_1_1,LWin_1_1_1,LWout_1_1_1,SWin_1_1_1,SWout_1_1_1,PPFD_1_1_1,MWS_1_1_1,WD_1_1_1,SWC_1_1_1,Ts_1_1_1
[yyyy-mm-dd],[HH:MM],[ddd.ddd],[K],[Pa],[%],[W+1m-2],[W+1m-2],[W+1m-2],[W+1m-2],[µmol+1m-2s-1],[m+1s-1],[deg],[m+3m-3],[K]
2018-05-23,00:30,143.020,295.41333333333324,94917.766666666663,25.936000000000000,431.80199999999996,348.12366666666674,36.691666666666677,145.69799999999995,299.09666666666664,4.1600000000000010,312.21100000000001,0.25999999999999984,284.30566666666681
2018-05-23,01:00,143.041,294.75466666666676,94956.233333333337,25.925999999999998,424.07233333333335,344.49599999999992,18.850666666666669,61.951000000000001,136.08166666666662,2.8400000000000003,323.45499999999998,0.25999999999999984,284.23099999999999
2018-05-23,01:30,143.062,293.95399999999995,94979.333333333328,29.039666666666665,415.68999999999994,341.47933333333327,5.3936666666666655,11.630333333333331,35.222666666666662,3.0366666666666662,309.53300000000002,0.25999999999999984,284.14400000000006
2018-05-23,02:00,143.083,293.19966666666670,94994.666666666672,32.448000000000008,408.60000000000008,340.83733333333322,2.1823333333333332,-3.1109999999999993,3.4179999999999993,2.5633333333333330,303.56566666666663,0.25999999999999984,284.03766666666678
2018-05-23,02:30,143.104,292.95999999999998,95014.766666666663,32.963666666666661,403.43699999999990,341.39600000000002,1.4270000000000000,-4.3243333333333327,7.46666666666666728E-002,2.4600000000000004,327.14466666666669,0.25999999999999984,283.92199999999991
2018-05-23,03:00,143.124,292.26700000000017,95035.666666666672,35.069666666666663,399.97533333333337,340.95200000000000,0.53600000000000003,-4.6306666666666674,-4.00000000000000008E-003,2.2633333333333332,340.07833333333332,0.25999999999999984,283.79700000000008
2018-05-23,03:30,143.145,291.75300000000004,95059.233333333337,38.226000000000006,397.08033333333333,339.99199999999996,1.0826666666666669,-4.0083333333333337,-3.00000000000000006E-003,2.8266666666666667,330.61099999999999,0.25999999999999984,283.66966666666673
2018-05-23,04:00,143.166,292.22900000000010,95065.800000000003,35.866333333333323,398.41733333333343,339.10966666666678,0.99466666666666670,-4.2296666666666676,-1.00000000000000002E-003,2.4433333333333338,329.94466666666659,0.25999999999999984,283.54500000000002
2018-05-23,04:30,143.187,292.15000000000003,95060.000000000000,32.222666666666676,396.61800000000017,337.09800000000007,1.0223333333333333,-4.1803333333333335,4.00000000000000008E-003,2.1066666666666674,330.76599999999996,0.25999999999999984,283.41433333333333
2018-05-23,05:00,143.208,292.02199999999999,95067.333333333328,29.699666666666655,393.10199999999998,333.33699999999993,2.1019999999999999,-4.3586666666666671,3.33333333333332726E-004,1.2466666666666664,274.16633333333334,0.25999999999999984,283.29600000000005
2018-05-23,05:30,143.229,291.82400000000013,95075.699999999997,34.035333333333334,388.65733333333333,330.68166666666667,1.2280000000000002,-4.5476666666666681,6.66666666666666709E-003,1.7466666666666666,234.07766666666666,0.25999999999999984,283.17733333333331
2018-05-23,06:00,143.249,289.77933333333328,95099.333333333328,50.197000000000003,383.15133333333335,326.30733333333330,0.97233333333333349,-4.0333333333333332,-3.00000000000000006E-003,2.4766666666666670,195.66633333333331,0.25999999999999984,283.05900000000003
2018-05-23,06:30,143.270,288.16833333333341,95129.699999999997,56.752333333333326,383.40166666666664,319.67900000000003,0.68699999999999983,-4.0259999999999998,-1.66666666666666677E-003,4.1866666666666665,192.78933333333333,0.25999999999999984,282.94133333333332
2018-05-23,07:00,143.291,288.02233333333339,95168.533333333340,59.966666666666661,379.81899999999990,321.09500000000008,0.97466666666666668,-3.8929999999999998,1.26666666666666664E-002,3.2133333333333329,176.44466666666668,0.25999999999999984,282.83600000000007
2018-05-23,07:30,143.312,288.11200000000008,95165.333333333328,64.469333333333324,382.13966666666670,322.59900000000005,1.1593333333333335,-3.2946666666666662,1.46666666666666647E-002,3.5200000000000005,202.89899999999997,0.25999999999999984,282.73900000000009
2018-05-23,08:00,143.333,287.90433333333345,95159.133333333331,69.765333333333317,380.33366666666666,321.76599999999996,1.5686666666666664,-3.2633333333333341,1.96666666666666691E-002,3.0733333333333333,229.41066666666666,0.25999999999999984,282.64466666666664
2018-05-23,08:30,143.354,288.31766666666675,95157.433333333334,71.510333333333350,382.82433333333330,324.92566666666664,1.2720000000000000,-3.4783333333333339,-1.30000000000000011E-002,3.2900000000000005,250.29899999999998,0.25999999999999984,282.56100000000004
2018-05-23,09:00,143.374,288.22333333333336,95182.333333333328,72.862666666666655,381.94600000000008,326.92333333333335,1.2346666666666666,-3.3896666666666655,1.23333333333333333E-002,3.1599999999999997,251.33300000000000,0.25999999999999984,282.48400000000004
2018-05-23,09:30,143.395,288.13100000000014,95181.566666666666,73.554666666666662,380.19233333333329,326.36900000000003,1.1363333333333334,-3.4836666666666662,1.43333333333333316E-002,2.6066666666666665,242.08866666666665,0.25999999999999984,282.41333333333324
2018-05-23,10:00,143.416,287.98266666666672,95208.366666666669,74.164000000000001,377.77433333333335,323.55300000000000,1.4146666666666674,-3.2946666666666662,0.27199999999999996,2.1466666666666669,231.49933333333331,0.25999999999999984,282.34433333333340
2018-05-23,10:30,143.437,286.89466666666652,95243.866666666669,78.053000000000026,375.45666666666671,320.64633333333330,2.0773333333333333,3.9526666666666670,10.514999999999999,3.0333333333333332,199.12199999999999,0.25999999999999984,282.28166666666675
2018-05-23,11:00,143.458,286.26066666666668,95262.899999999994,82.663666666666643,374.98533333333330,317.59666666666664,9.8103333333333342,38.442666666666675,59.491000000000007,2.9866666666666668,203.78900000000002,0.25999999999999984,282.22566666666665
2018-05-23,11:30,143.479,285.83200000000011,95308.500000000000,84.901666666666671,376.07566666666668,316.46699999999993,15.284333333333334,82.521666666666661,145.02599999999998,3.6566666666666667,193.84399999999999,0.25999999999999984,282.17466666666667
2018-05-23,12:00,143.499,287.05133333333339,95343.333333333328,80.155666666666633,384.28233333333344,322.55300000000000,33.251666666666672,189.19733333333335,314.21700000000004,3.5766666666666667,204.81133333333335,0.25999999999999984,282.13633333333325
2018-05-23,12:30,143.520,287.71966666666668,95367.333333333328,77.861333333333334,390.22833333333335,326.37099999999998,43.277666666666661,263.51799999999997,465.33566666666661,2.4066666666666663,205.12266666666665,0.25999999999999984,282.12299999999999
2018-05-23,13:00,143.541,289.41666666666669,95393.133333333331,71.756666666666675,401.78066666666660,336.24966666666660,59.879333333333335,377.94200000000006,692.69900000000007,1.7766666666666675,220.03266666666664,0.25999999999999984,282.13000000000005
2018-05-23,13:30,143.562,291.24766666666676,95402.766666666663,64.315333333333328,414.29400000000004,346.44199999999995,73.355000000000004,472.95899999999995,896.96800000000019,1.0033333333333332,229.53366666666668,0.25999999999999984,282.16133333333329
2018-05-23,14:00,143.583,292.98533333333336,95410.133333333331,57.125999999999998,426.32233333333335,357.12733333333347,84.215666666666678,555.01699999999994,1081.2266666666669,1.1233333333333335,240.01100000000000,0.25999999999999984,282.23400000000004
2018-05-23,14:30,143.604,293.47800000000001,95436.199999999997,55.022666666666673,431.80233333333331,363.27966666666663,95.330333333333328,635.34899999999993,1256.4019999999998,1.7666666666666666,222.09999999999997,0.25999999999999984,282.35366666666664
2018-05-23,15:00,143.624,294.09199999999998,95431.000000000000,49.671666666666660,436.43533333333340,367.17733333333331,107.06166666666665,709.27366666666660,1420.8240000000003,1.8999999999999999,234.03400000000002,0.25999999999999984,282.53133333333341
2018-05-23,15:30,143.645,294.47866666666670,95394.466666666660,46.710333333333338,439.23166666666674,370.87099999999987,117.17633333333335,778.53500000000008,1571.1580000000001,2.6566666666666667,234.12266666666665,0.25999999999999984,282.71066666666667
2018-05-23,16:00,143.666,294.74466666666666,95386.766666666663,47.462000000000010,437.95966666666669,373.30633333333327,96.641333333333350,641.08466666666686,1305.1056666666661,3.2766666666666664,236.21099999999998,0.25999999999999984,282.88633333333325
2018-05-23,16:30,143.687,295.38033333333340,95377.466666666660,44.950666666666656,443.02733333333327,376.85566666666665,106.45733333333335,708.62966666666637,1451.6779999999999,2.8166666666666669,221.88933333333335,0.25999999999999984,283.07533333333339
2018-05-23,17:00,143.708,295.85300000000001,95360.199999999997,42.541333333333341,449.14800000000002,381.73566666666665,137.12966666666668,895.52533333333338,1836.8699999999999,2.7866666666666666,167.19000000000000,0.25999999999999984,283.26433333333341
2018-05-23,17:30,143.729,296.45633333333330,95349.233333333337,41.073000000000008,453.70533333333327,390.92933333333320,129.75066666666669,855.27766666666673,1771.8333333333333,2.2633333333333332,203.55566666666667,0.25999999999999984,283.47666666666669
2018-05-23,18:00,143.749,297.35233333333338,95343.233333333337,38.763999999999982,463.10499999999990,400.74333333333317,154.56100000000001,1017.8823333333333,2094.8010000000004,2.8766666666666665,190.59999999999999,0.25999999999999984,283.68733333333330
2018-05-23,18:30,143.770,297.15833333333342,95325.566666666666,37.874333333333333,459.69100000000003,391.31733333333341,144.16866666666667,954.04499999999973,1974.1796666666671,3.4766666666666666,211.44399999999999,0.25999999999999984,283.90633333333335
2018-05-23,19:00,143.791,297.53333333333342,95296.266666666663,36.349000000000004,458.21333333333337,389.02866666666671,117.13600000000001,770.57133333333331,1608.9526666666668,2.9466666666666663,202.22266666666667,0.25999999999999984,284.14033333333333
2018-05-23,19:30,143.812,297.94433333333342,95291.766666666663,35.012000000000008,461.75233333333347,398.99799999999999,145.91266666666667,940.21866666666676,1945.0673333333336,4.6799999999999988,243.72200000000001,0.25466666666666665,284.36166666666668
2018-05-23,20:00,143.833,298.51700000000005,95304.466666666660,33.954666666666661,465.24833333333322,404.64299999999992,135.18200000000004,851.39133333333325,1756.4456666666670,3.2599999999999993,219.15566666666666,0.25000000000000000,284.68699999999995
2018-05-23,20:30,143.854,298.72833333333335,95281.233333333337,32.649666666666668,464.84766666666661,399.11500000000001,116.46333333333337,722.43733333333341,1517.3556666666668,3.6466666666666665,196.33400000000000,0.25000000000000000,284.96333333333337
2018-05-23,21:00,143.874,298.94933333333336,95262.566666666666,32.584999999999994,466.40266666666668,395.92833333333334,128.04433333333330,752.99166666666667,1583.3776666666665,2.8366666666666664,204.19999999999999,0.25000000000000000,285.17366666666663
2018-05-23,21:30,143.895,299.09966666666674,95241.033333333340,32.292000000000009,466.92799999999994,391.60099999999989,120.73733333333335,692.66300000000012,1463.1796666666667,2.4633333333333329,187.69999999999999,0.25000000000000000,285.30766666666665
2018-05-23,22:00,143.916,299.25300000000004,95232.399999999994,31.925333333333334,467.76866666666666,405.55799999999994,119.39800000000000,676.38433333333353,1412.4240000000000,3.2933333333333339,219.38933333333335,0.25000000000000000,285.39333333333337
2018-05-23,22:30,143.937,299.25666666666660,95236.699999999997,32.704333333333338,463.00166666666684,394.31000000000017,88.348333333333372,489.00666666666683,1022.3936666666668,3.1400000000000001,229.79966666666667,0.25000000000000000,285.46733333333327
2018-05-23,23:00,143.958,299.22433333333345,95221.899999999994,33.294333333333334,461.63366666666667,398.35633333333334,87.307666666666648,466.21733333333327,964.13966666666624,3.7633333333333336,224.37733333333333,0.25000000000000000,285.49966666666666
2018-05-23,23:30,143.979,299.03800000000012,95198.199999999997,34.306333333333335,456.98766666666677,382.84400000000005,58.865666666666655,290.11799999999999,612.38533333333328,2.9133333333333327,211.23333333333332,0.25000000000000000,285.52033333333344
2018-05-24,00:00,144.000,298.67100000000005,95204.666666666672,35.513000000000005,452.08266666666663,377.97633333333329,44.547333333333327,197.38666666666671,418.65266666666673,2.7233333333333345,218.82200000000000,0.25000000000000000,285.51000000000010
